Location: ?nandapuram
(16.5396°N, 81.1430°E)
Time: 14:52:48
(UTC+00:00)

NOAA 12 - Pass Details

Date: 14 April 2026
Orbit: 792 x 813 km, 98.6° (Epoch: 11 May)

Event Time Altitude Azimuth Distance (km) Brightness Sun altitude
Rises 23:13:12 0° 16° (NNE) 3,299 7.7 -16.5°
Reaches altitude 10° 23:15:33 10° 19° (NNE) 2,365 7.0 -16.0°
Maximum altitude 23:20:44 69° 102° (ESE) 846 4.4 -14.8°
Drops below altitude 10° 23:25:54 10° 185° (S) 2,352 6.3 -13.6°
Sets 23:28:14 0° 188° (S) 3,279 7.0 -13.1°
